Location: Waco, TX
(31.5480°N, 97.1670°W)
Time: 14:55:36
(UTC-05:00)

ISS - Pass Details

Date: 15 March 2018
Orbit: 403 x 408 km, 51.6° (Epoch: 20 September)

Event Time Altitude Azimuth Distance (km) Brightness Sun altitude
Rises 07:46:54 0° 321° (NW) 2,347 -0.4 0.9°
Reaches altitude 10° 07:49:04 10° 327° (NNW) 1,479 -1.3 1.4°
Maximum altitude 07:52:16 45° 42° (NE) 563 -2.7 2.1°
Drops below altitude 10° 07:55:26 10° 117° (ESE) 1,461 0.5 2.7°
Sets 07:57:33 0° 124° (ESE) 2,314 1.2 3.2°
